TimeEST,TemperatureF,Dew PointF,Humidity,Sea Level PressureIn,VisibilityMPH,Wind Direction,Wind SpeedMPH,Gust SpeedMPH,PrecipitationIn,Events,Conditions,WindDirDegrees,DateUTC
12:53 AM,60.1,57.9,93,30.17,8.0,NE,5.8,-,0.01,,Mostly Cloudy,40,2013-01-07 05:53:00
1:10 AM,60.8,57.2,88,30.17,7.0,North,6.9,-,N/A,,Mostly Cloudy,10,2013-01-07 06:10:00
1:26 AM,60.8,57.2,88,30.17,6.0,NNE,8.1,-,N/A,,Mostly Cloudy,20,2013-01-07 06:26:00
1:37 AM,60.8,57.2,88,30.17,6.0,North,5.8,-,N/A,,Mostly Cloudy,10,2013-01-07 06:37:00
1:50 AM,60.8,57.2,88,30.17,7.0,North,4.6,-,0.00,,Overcast,360,2013-01-07 06:50:00
1:53 AM,60.1,57.9,93,30.17,6.0,NNE,3.5,-,0.00,,Overcast,20,2013-01-07 06:53:00
2:53 AM,59.0,57.0,93,30.17,8.0,NNE,10.4,-,0.00,Rain,Light Rain,20,2013-01-07 07:53:00
3:43 AM,59.0,57.2,94,30.17,8.0,NNE,8.1,-,0.00,,Overcast,20,2013-01-07 08:43:00
3:53 AM,59.0,55.9,90,30.17,9.0,NNE,11.5,-,0.00,,Overcast,30,2013-01-07 08:53:00
4:13 AM,59.0,55.4,88,30.17,10.0,NNE,9.2,-,N/A,,Overcast,30,2013-01-07 09:13:00
4:35 AM,57.2,55.4,94,30.18,10.0,NNE,9.2,-,N/A,,Mostly Cloudy,30,2013-01-07 09:35:00
4:53 AM,57.0,54.0,89,30.18,10.0,North,8.1,-,N/A,,Mostly Cloudy,10,2013-01-07 09:53:00
5:02 AM,57.2,53.6,88,30.18,10.0,NNE,5.8,-,N/A,,Mostly Cloudy,30,2013-01-07 10:02:00
5:53 AM,55.0,50.0,83,30.19,10.0,NNE,9.2,-,N/A,,Mostly Cloudy,20,2013-01-07 10:53:00
6:00 AM,55.4,50.0,82,30.20,10.0,NNE,6.9,-,N/A,,Scattered Clouds,20,2013-01-07 11:00:00
6:53 AM,53.1,48.0,83,30.22,10.0,NE,6.9,-,N/A,,Partly Cloudy,40,2013-01-07 11:53:00
7:36 AM,53.6,48.2,82,30.24,10.0,NNE,5.8,-,N/A,,Mostly Cloudy,20,2013-01-07 12:36:00
7:53 AM,53.1,48.0,83,30.25,10.0,NNE,6.9,-,N/A,,Mostly Cloudy,20,2013-01-07 12:53:00
8:04 AM,53.6,48.2,82,30.26,10.0,NNE,6.9,-,N/A,,Scattered Clouds,20,2013-01-07 13:04:00
8:53 AM,55.0,48.0,77,30.26,10.0,NE,5.8,-,N/A,,Partly Cloudy,50,2013-01-07 13:53:00
9:53 AM,61.0,50.0,67,30.26,10.0,ENE,11.5,-,N/A,,Clear,60,2013-01-07 14:53:00
10:53 AM,62.1,50.0,65,30.25,10.0,NNE,11.5,-,N/A,,Partly Cloudy,30,2013-01-07 15:53:00
11:53 AM,64.0,51.1,63,30.23,10.0,NNE,11.5,-,N/A,,Clear,30,2013-01-07 16:53:00
12:53 PM,64.0,52.0,65,30.21,10.0,NNE,11.5,-,N/A,,Partly Cloudy,20,2013-01-07 17:53:00
1:53 PM,66.0,53.1,63,30.19,10.0,ENE,10.4,-,N/A,,Mostly Cloudy,70,2013-01-07 18:53:00
2:53 PM,68.0,54.0,61,30.19,10.0,ENE,15.0,-,N/A,,Overcast,60,2013-01-07 19:53:00
3:53 PM,69.1,55.0,61,30.19,10.0,ENE,9.2,-,N/A,,Scattered Clouds,60,2013-01-07 20:53:00
4:39 PM,66.2,55.4,68,30.20,10.0,ENE,11.5,-,N/A,,Overcast,60,2013-01-07 21:39:00
4:53 PM,66.9,55.0,66,30.21,10.0,NE,8.1,-,N/A,,Overcast,50,2013-01-07 21:53:00
5:51 PM,64.4,55.4,73,30.22,10.0,NE,8.1,-,0.00,Rain,Light Rain,50,2013-01-07 22:51:00
5:53 PM,64.9,55.0,70,30.22,10.0,NE,6.9,-,0.00,Rain,Light Rain,50,2013-01-07 22:53:00
6:06 PM,64.4,55.4,73,30.22,10.0,NE,6.9,-,0.00,Rain,Light Rain,50,2013-01-07 23:06:00
6:53 PM,64.0,57.0,78,30.22,9.0,NNE,5.8,-,0.00,Rain,Light Rain,30,2013-01-07 23:53:00
7:18 PM,62.6,55.4,77,30.23,10.0,NE,8.1,-,0.01,,Overcast,40,2013-01-08 00:18:00
7:53 PM,63.0,55.9,78,30.23,10.0,NNE,4.6,-,0.01,Rain,Light Rain,30,2013-01-08 00:53:00
8:53 PM,61.0,57.0,87,30.23,9.0,NE,4.6,-,0.01,Rain,Light Rain,40,2013-01-08 01:53:00
9:53 PM,61.0,57.9,90,30.23,9.0,NNE,5.8,-,0.01,Rain,Light Rain,30,2013-01-08 02:53:00
10:53 PM,60.1,57.0,90,30.22,10.0,North,8.1,-,0.06,,Overcast,10,2013-01-08 03:53:00
11:53 PM,59.0,57.0,93,30.21,10.0,NNE,5.8,-,N/A,,Mostly Cloudy,20,2013-01-08 04:53:00